Location: De Lemmer
(52.8462°N, 5.7091°E)
Time: 10:15:36
(UTC+00:00)

COSMOS 2406 - Pass Details

Date: 18 September 2020
Orbit: 844 x 863 km, 71.0° (Epoch: 30 October)

Event Time Altitude Azimuth Distance (km) Brightness Sun altitude
Rises 20:45:39 0° 327° (NNW) 3,416 7.6 -25.7°
Reaches altitude 10° 20:48:07 10° 326° (NW) 2,477 6.6 -26.0°
Maximum altitude 20:53:46 74° 243° (WSW) 884 3.2 -26.6°
Enters shadow 20:54:19 68° 199° (SSW) 912 3.1 -26.6°
